Weather History for Fort Rucker / Ozark, AL

Change the Weather History Date:

Tuesday, December 24, 2013

  Actual Average (KDHN) Record (KDHN)
Temperature  
Mean Temperature 40 °F 50 °F  
Max Temperature 52 °F 61 °F 77 °F (1944)
Min Temperature 28 °F 39 °F 28 °F (1960)
Degree Days  
Heating Degree Days 25 16  
Month to date heating degree days 324  
Since 1 July heating degree days 601  
Moisture  
Dew Point 27 °F    
Average Humidity 63    
Maximum Humidity 85    
Minimum Humidity 34    
Precipitation  
Precipitation 0.00 in 0.11 in 1.98 in (2014)
Month to date precipitation 3.68  
Year to date precipitation 53.26  
Sea Level Pressure  
Sea Level Pressure 30.38 in    
Wind  
Wind Speed 7 mph (North)    
Max Wind Speed 14 mph    
Max Gust Speed 23 mph    
Visibility 10 miles    
Events      
T = Trace of Precipitation, MM = Missing Value Source: NWS Daily Summary

Daily Weather History Graph

Daily Weather History Graph

Search for Another Location

Airport:

Trip Planner

Search our weather history database for the weather conditions in past years. The results will help you decide how hot, cold, wet, or windy it might be!

Date:

Astronomy

Dec. 24, 2013 Rise Set
Actual Time 6:39 AM CST 4:46 PM CST
Civil Twilight 6:12 AM CST 5:12 PM CST
Nautical Twilight 5:42 AM CST 5:43 PM CST
Astronomical Twilight 5:12 AM CST 6:12 PM CST
Moon 11:27 PM CST (12/24) 10:57 AM CST (12/24)
Length of Visible Light 11h 00m
Length of Day
10h 06m
Waning Gibbous, 58% of the Moon is Illuminated
Dec 24
Waning Gibbous
Dec 25
Last Quarter
Jan 1
New
Jan 7
First Quarter
Jan 15
Full

Hourly Weather History & Observations

Time (CST) Temp. Windchill Dew Point Humidity Pressure Visibility Wind Dir Wind Speed Gust Speed Precip Events Conditions
12:29 AM 39.2 °F 34.2 °F 32.0 °F 75% 30.33 in 10.0 mi North 6.9 mph - N/A   Partly Cloudy
12:53 AM 37.9 °F 34.4 °F 32.0 °F 79% 30.34 in 10.0 mi NNW 4.6 mph - N/A   Partly Cloudy
1:53 AM 37.0 °F 31.6 °F 30.0 °F 76% 30.35 in 10.0 mi North 6.9 mph - N/A   Clear
2:53 AM 35.1 °F 27.9 °F 30.0 °F 82% 30.36 in 10.0 mi North 9.2 mph - N/A   Clear
3:53 AM 34.0 °F 28.8 °F 28.9 °F 82% 30.35 in 9.0 mi North 5.8 mph - N/A   Clear
4:53 AM 33.1 °F 26.9 °F 28.9 °F 85% 30.36 in 9.0 mi North 6.9 mph - N/A   Clear
5:53 AM 33.1 °F 26.9 °F 28.0 °F 82% 30.38 in 9.0 mi NNW 6.9 mph - N/A   Clear
6:53 AM 32.0 °F 26.4 °F 28.0 °F 85% 30.41 in 8.0 mi North 5.8 mph - N/A   Clear
7:53 AM 36.0 °F 28.5 °F 28.9 °F 76% 30.43 in 9.0 mi North 10.4 mph - N/A   Clear
8:53 AM 39.9 °F 33.4 °F 28.0 °F 63% 30.45 in 10.0 mi North 10.4 mph - N/A   Clear
9:53 AM 45.0 °F 38.9 °F 27.0 °F 49% 30.45 in 10.0 mi North 12.7 mph - N/A   Clear
10:53 AM 48.0 °F - 27.0 °F 44% 30.42 in 10.0 mi NNE 9.2 mph 17.3 mph N/A   Clear
11:53 AM 50.0 °F - 27.0 °F 41% 30.40 in 10.0 mi North 11.5 mph 18.4 mph N/A   Clear
12:53 PM 51.1 °F - 27.0 °F 39% 30.36 in 10.0 mi North 13.8 mph 23.0 mph N/A   Clear
1:53 PM 52.0 °F - 27.0 °F 38% 30.35 in 10.0 mi North 10.4 mph - N/A   Clear
2:53 PM 52.0 °F - 24.1 °F 34% 30.35 in 10.0 mi North 10.4 mph - N/A   Clear
3:53 PM 50.0 °F - 24.1 °F 36% 30.35 in 10.0 mi North 9.2 mph - N/A   Clear
4:53 PM 44.1 °F 40.8 °F 25.0 °F 47% 30.36 in 10.0 mi North 5.8 mph - N/A   Clear
5:53 PM 41.0 °F 38.0 °F 25.0 °F 53% 30.36 in 10.0 mi North 4.6 mph - N/A   Clear
6:53 PM 39.0 °F - 25.0 °F 57% 30.37 in 10.0 mi Calm Calm - N/A   Clear
7:53 PM 37.0 °F - 25.0 °F 62% 30.37 in 10.0 mi Calm Calm - N/A   Clear
8:53 PM 36.0 °F 33.3 °F 24.1 °F 62% 30.38 in 10.0 mi NNE 3.5 mph - N/A   Clear
9:53 PM 33.1 °F 30.0 °F 24.1 °F 70% 30.38 in 10.0 mi North 3.5 mph - N/A   Clear
10:53 PM 28.9 °F - 25.0 °F 85% 30.38 in 10.0 mi Calm Calm - N/A   Clear
11:53 PM 28.9 °F - 25.0 °F 85% 30.38 in 10.0 mi Calm Calm - N/A   Clear